Location: Newark
(49.8348°N, 24.0280°E)
Time: 04:32:57
(UTC+00:00)

Transit 2A - Pass Details

Date: 28 January 2020
Orbit: 600 x 959 km, 66.7° (Epoch: 19 February)

Event Time Altitude Azimuth Distance (km) Brightness Sun altitude
Rises 03:08:07 0° 315° (NW) 2,994 - -28.1°
Reaches altitude 10° 03:10:34 10° 305° (NW) 2,125 - -27.7°
Maximum altitude 03:14:42 29° 245° (WSW) 1,304 - -27.1°
Drops below altitude 10° 03:19:10 10° 187° (S) 2,305 - -26.3°
Exits shadow 03:19:37 - 185° (S) 2,464 8.5 -26.3°
Sets 03:21:56 0° 177° (S) 3,295 9.3 -25.9°
